Weather History for KAPN - November, 2012

Change the Weather History Date:

Monday, November 12, 2012

  Actual Average Record
Temperature  
Mean Temperature 45 °F 37 °F  
Max Temperature 60 °F 45 °F 64 °F (1927)
Min Temperature 29 °F 29 °F 7 °F (1920)
Degree Days  
Heating Degree Days 20 28  
Month to date heating degree days 314 314  
Since 1 July heating degree days 1154 1258  
Moisture  
Dew Point 34 °F    
Average Humidity 76    
Maximum Humidity 96    
Minimum Humidity 55    
Precipitation  
Precipitation 0.08 in 0.07 in 0.50 in (1916)
Month to date precipitation 0.53 0.85  
Year to date precipitation 24.73 25.16  
Snow  
Snow T in 0.20 in 5.00 in (1916)
Month to date snowfall T 1.8  
Since 1 July snowfall T 2.2  
Snow Depth 0.00 in    
Sea Level Pressure  
Sea Level Pressure 29.90 in    
Wind  
Wind Speed 11 mph (WSW)    
Max Wind Speed 20 mph    
Max Gust Speed 29 mph    
Visibility 10 miles    
Events Rain , Snow    
T = Trace of Precipitation, MM = Missing Value Source: NWS Daily Summary

Daily Weather History Graph

Daily Weather History Graph

Search for Another Location

Airport or City:

Trip Planner

Search our weather history database for the weather conditions in past years. The results will help you decide how hot, cold, wet, or windy it might be!

Date:

Astronomy

Nov. 12, 2012 Rise Set
Actual Time 7:28 AM EST 5:07 PM EST
Civil Twilight 6:57 AM EST 5:39 PM EST
Nautical Twilight 6:21 AM EST 6:14 PM EST
Astronomical Twilight 5:47 AM EST 6:49 PM EST
Moon 5:50 AM EST (11/12) 4:13 PM EST (11/12)
Length of Visible Light 10h 42m
Length of Day
9h 39m
Waning Crescent, 2% of the Moon is Illuminated
Nov 12
Waning Crescent
Nov 13
New
Nov 20
First Quarter
Nov 28
Full
Dec 6
Last Quarter

Hourly Weather History & Observations

Time (EST) Temp. Windchill Dew Point Humidity Pressure Visibility Wind Dir Wind Speed Gust Speed Precip Events Conditions
12:54 AM 59.0 °F - 45.0 °F 60% 29.81 in 10.0 mi South 13.8 mph - 0.00 in Rain Light Rain
1:54 AM 59.0 °F - 43.0 °F 55% 29.79 in 10.0 mi South 10.4 mph - 0.00 in   Overcast
2:54 AM 57.9 °F - 43.0 °F 58% 29.78 in 10.0 mi South 9.2 mph - N/A   Overcast
3:54 AM 57.9 °F - 46.9 °F 67% 29.78 in 10.0 mi SW 16.1 mph 24.2 mph N/A   Overcast
4:54 AM 55.0 °F - 48.9 °F 80% 29.77 in 10.0 mi South 11.5 mph - 0.00 in Rain Light Rain
5:34 AM 53.6 °F - 50.0 °F 88% 29.78 in 10.0 mi SSW 11.5 mph 16.1 mph 0.01 in Rain Light Rain
5:54 AM 53.1 °F - 48.9 °F 86% 29.79 in 10.0 mi SSW 6.9 mph - 0.01 in   Overcast
6:34 AM 53.6 °F - 50.0 °F 88% 29.78 in 10.0 mi South 8.1 mph - 0.00 in Rain Light Rain
6:54 AM 52.0 °F - 50.0 °F 93% 29.79 in 10.0 mi South 9.2 mph - 0.00 in   Overcast
7:17 AM 48.2 °F - 46.4 °F 93% 29.81 in 4.0 mi West 15.0 mph 28.8 mph 0.01 in Rain Heavy Rain
7:29 AM 46.4 °F 41.9 °F 44.6 °F 93% 29.81 in 5.0 mi West 9.2 mph 19.6 mph 0.04 in Rain Rain
7:54 AM 46.9 °F - 44.1 °F 90% 29.83 in 10.0 mi WSW 13.8 mph 19.6 mph 0.07 in Rain Light Rain
8:54 AM 46.0 °F 42.5 °F 43.0 °F 89% 29.83 in 10.0 mi WSW 6.9 mph - 0.00 in Rain Light Rain
9:27 AM 44.6 °F 39.2 °F 41.0 °F 87% 29.84 in 10.0 mi West 10.4 mph 21.9 mph 0.00 in   Overcast
9:52 AM 44.6 °F 40.2 °F 39.2 °F 81% 29.83 in 10.0 mi WSW 8.1 mph - 0.00 in   Overcast
9:54 AM 43.0 °F 38.2 °F 39.0 °F 86% 29.83 in 10.0 mi WSW 8.1 mph - 0.00 in   Overcast
10:47 AM 42.8 °F 38.6 °F 39.2 °F 87% 29.85 in 10.0 mi West 6.9 mph - 0.00 in Rain Light Rain
10:54 AM 42.1 °F 38.4 °F 39.0 °F 89% 29.86 in 10.0 mi West 5.8 mph - 0.00 in Rain Light Rain
11:26 AM 41.0 °F 38.0 °F 37.4 °F 87% 29.86 in 10.0 mi WSW 4.6 mph - 0.00 in Rain Light Rain
11:45 AM 41.0 °F 35.2 °F 37.4 °F 87% 29.86 in 10.0 mi West 9.2 mph - 0.00 in   Overcast
11:54 AM 42.1 °F 35.7 °F 37.9 °F 85% 29.87 in 10.0 mi West 11.5 mph 16.1 mph 0.00 in   Mostly Cloudy
12:54 PM 39.9 °F 33.4 °F 33.1 °F 77% 29.88 in 10.0 mi West 10.4 mph 19.6 mph N/A   Overcast
1:54 PM 37.0 °F 27.7 °F 28.0 °F 70% 29.90 in 10.0 mi SW 16.1 mph 28.8 mph N/A   Overcast
2:35 PM 37.4 °F 29.8 °F 26.6 °F 65% 29.88 in 10.0 mi WSW 11.5 mph 23.0 mph N/A   Overcast
2:54 PM 36.0 °F 29.0 °F 26.1 °F 67% 29.91 in 10.0 mi WSW 9.2 mph 20.7 mph N/A   Overcast
3:49 PM 35.6 °F 28.0 °F 26.6 °F 70% 29.92 in 10.0 mi WSW 10.4 mph 20.7 mph N/A   Overcast
3:54 PM 35.1 °F 25.5 °F 25.0 °F 67% 29.94 in 10.0 mi SW 15.0 mph 21.9 mph N/A   Overcast
4:54 PM 34.0 °F 25.0 °F 23.0 °F 64% 29.96 in 10.0 mi West 12.7 mph 19.6 mph N/A   Overcast
5:54 PM 33.1 °F 24.4 °F 21.9 °F 64% 29.99 in 10.0 mi West 11.5 mph 23.0 mph N/A   Overcast
6:54 PM 32.0 °F 23.0 °F 21.0 °F 64% 30.02 in 10.0 mi West 11.5 mph 20.7 mph N/A   Overcast
7:54 PM 32.0 °F 22.5 °F 19.0 °F 59% 30.04 in 10.0 mi SW 12.7 mph 18.4 mph N/A   Overcast
8:54 PM 30.9 °F 21.7 °F 21.9 °F 69% 30.06 in 10.0 mi SW 11.5 mph 16.1 mph N/A   Overcast
9:06 PM 30.2 °F 22.6 °F 21.2 °F 69% 30.04 in 10.0 mi WSW 8.1 mph - N/A   Overcast
9:30 PM 30.2 °F 22.6 °F 21.2 °F 69% 30.05 in 10.0 mi WSW 8.1 mph - N/A   Overcast
9:43 PM 30.2 °F 19.3 °F 19.4 °F 64% 30.05 in 9.0 mi WSW 15.0 mph 26.5 mph 0.00 in Snow Light Snow
9:54 PM 30.9 °F 20.7 °F 19.9 °F 64% 30.08 in 9.0 mi WSW 13.8 mph 20.7 mph 0.00 in   Overcast
10:54 PM 30.0 °F 20.5 °F 18.0 °F 61% 30.11 in 10.0 mi WSW 11.5 mph 19.6 mph N/A   Mostly Cloudy
11:54 PM 28.9 °F 21.1 °F 19.0 °F 67% 30.14 in 10.0 mi SW 8.1 mph 18.4 mph N/A   Mostly Cloudy